Regional Weather Roundup
Issued by NWS

Home | Current Version | Previous Version | Text Only | Print | Product List | Glossary On
Versions: 1 2 3 4 5 6 7 8 9 10 11 12 13 14 15 16 17 18 19 20 21 22 23 24 25 26 27
000
ASUS45 KBOU 240607
RWRCO

WEATHER ROUNDUP FOR COLORADO
NATIONAL WEATHER SERVICE DENVER/BOULDER CO
1200 AM MDT TUE OCT 24 2017

NOTE: "FAIR" INDICATES FEW OR NO CLOUDS BELOW 12000 FEET WITH NO
SIGNIFICANT WEATHER AND/OR OBSTRUCTIONS TO VISIBILITY.

COZ001>005-013-030-031-240700-
...NORTHWEST COLORADO...

CITY           SKY/WX    TMP DP  RH WIND       PRES   REMARKS
CRAIG          FAIR      36  22  56 CALM      30.62R
HAYDEN         FAIR      38  22  52 SW5       30.62S
MEEKER         FAIR      37  26  64 CALM      30.61R
RABBIT EARS PA FAIR      28  19  69 W9        30.66F WCI  20
STEAMBOAT SPGS FAIR      34  22  61 CALM      30.61S
WALDEN         NOT AVBL
$$

COZ006>008-011-240700-
...WEST CENTRAL VALLEYS...

CITY           SKY/WX    TMP DP  RH WIND       PRES   REMARKS
GRAND JUNCTION FAIR      56  18  22 NW6       30.51S
MONTROSE       FAIR      42  28  57 S7        30.55F
EAGLE          FAIR      35  21  56 CALM      30.63R
RIFLE          FAIR      45  23  42 SW8       30.58R
DELTA          FAIR      50  28  42 CALM      30.52F
NUCLA          FAIR      48  21  34 SE3       30.56S
$$

COZ017>023-064>068-240700-
...SOUTHWEST COLORADO...

CITY           SKY/WX    TMP DP  RH WIND       PRES   REMARKS
DURANGO        FAIR      39  25  57 E7        30.46R
CORTEZ         FAIR      41  25  53 NE5       30.49S
PAGOSA SPRINGS FAIR      49  15  25 NE6       30.52R
TELLURIDE      FAIR      42  24  50 SW7       30.63F
WOLF CREEK PAS NOT AVBL
$$

COZ009-010-012-014-032>034-037-058>063-240700-
...CENTRAL COLORADO...

CITY           SKY/WX    TMP DP  RH WIND       PRES   REMARKS
ASPEN          FAIR      34  23  64 S6        30.61R WCI  29
BUENA VISTA    FAIR      34  26  75 CALM      30.57R
COPPER MTN     FAIR      28  18  64 MISG      30.69S
BERTHOUD PASS  FAIR      19  10  68 NW32G46   30.64S WCI   0
COTTONWOOD PAS FAIR      43  21  42 NW7       30.61S
GUNNISON       FAIR      38  23  55 CALM      30.57F
KREMMLING      FAIR      34  23  64 CALM      30.62S
LEADVILLE      FAIR      33  14  45 N16G26    30.62R WCI  23
MONARCH PASS   FAIR      30  12  47 NW18G24   30.79S WCI  18
SALIDA         FAIR      36  28  74 SW8       30.64S
SUNLIGHT       FAIR      30  14  51 N3        30.73S
WILKERSON PASS FAIR      30  12  47 N10G17    30.67S WCI  21
$$

COZ069>075-240700-
...SAN LUIS VALLEY/SANGRE DE CRISTO MOUNTAINS...

CITY           SKY/WX    TMP DP  RH WIND       PRES   REMARKS
ALAMOSA        FAIR      48  22  35 NW12      30.50S
DEL NORTE      FAIR      49  21  33 NW13G21   30.53F
LA VETA PASS   FAIR      28  25  86 NW6       30.71R WCI  22
SAGUACHE       FAIR      43  25  49 NW13      30.53F
$$

COZ035-036-038>040-240700-
...NORTHERN COLORADO FRONT RANGE...

CITY           SKY/WX    TMP DP  RH WIND       PRES   REMARKS
DENVER INTL AP FAIR      40  20  44 N8        30.57S
DMNS CITY PARK   N/A     38  30  72 SE16      30.58S
AURORA         CLEAR     37  24  60 CALM      30.58R
FRONT RANGE AP FAIR      37  23  56 CALM      30.58R
ERIE MUNI ARPT FAIR      33  30  88 CALM      30.63S
BOULDER MUN AP FAIR      41  28  60 CALM      30.57S
CENTENNIAL     FAIR      37  25  61 SW3       30.57S
BROOMFIELD     FAIR      43  30  61 NW9       30.58S
FORT COLLINS   FAIR      42  21  43 NE10      30.56F
LONGMONT       FAIR      39  28  65 SW5       30.59S HAZE
$$

COZ041-046-047-076>085-087-088-240700-
...PIKES PEAK/PALMER DIVIDE AND SOUTHERN FOOTHILLS...

CITY           SKY/WX    TMP DP  RH WIND       PRES   REMARKS
COLO. SPRINGS  FAIR      37  24  59 N9        30.57S
A. F. ACADEMY  FAIR      28  22  78 N9        30.57S WCI  20
SCHRIEVER AFB  FAIR      38  22  52 N9        30.57S
CHEYENNE MTN   FAIR      40  24  52 NW7       30.52R
ELLICOTT         N/A    N/A N/A N/A NE12      30.55S
FALCON         FAIR      34  20  57 N6        30.59R WCI  29
FORT CARSON    FAIR      36  27  68 NW9       30.55R
LIMON          FAIR      28  19  69 NW5       30.55S WCI  23
MONUMENT HILL  FAIR      27  19  74 CALM      30.60R
CANON CITY     FAIR      41  30  65 NW5       30.56R
WALSENBURG     FAIR      30  27  86 W8        30.56S WCI  23
TRINIDAD       FAIR      34  26  72 W5        30.56R WCI  30
$$

COZ042>045-048>051-090-091-240700-
...NORTHEAST COLORADO...

CITY           SKY/WX    TMP DP  RH WIND       PRES   REMARKS
GREELEY ARPT   FAIR      40  21  46 NW7       30.58R
AKRON          FAIR      39  17  41 NW17G23   30.51S
BURLINGTON     FAIR      35  22  58 W10       30.48F WCI  27
WRAY           NOT AVBL
YUMA           NOT AVBL
STERLING       NOT AVBL
HOLYOKE        FAIR      45  19  36 NW14G26   30.46R
FORT MORGAN    FAIR      35  18  49 W9        30.54S WCI  28
$$

COZ086-089-092>099-240700-
...SOUTHEAST COLORADO...

CITY           SKY/WX    TMP DP  RH WIND       PRES   REMARKS
PUEBLO         FAIR      36  24  62 CALM      30.54R
LA JUNTA       FAIR      41  26  55 W12       30.52S
LAMAR          FAIR      37  22  54 NW5       30.49R
SPRINGFIELD      N/A     32  25  75 NW8       30.49S WCI  25
$$




USA.gov is the U.S. government's official web portal to all federal, state and local government web resources and services.